Regional Weather Roundup
Issued by NWS

Home | Current Version | Previous Version | Text Only | Print | Product List | Glossary Off
Versions: 1 2 3 4 5 6 7 8 9 10 11 12 13 14 15 16 17 18 19 20 21 22 23 24 25 26 27 28 29 30 31 32 33 34 35 36 37 38 39 40 41 42 43 44 45 46 47 48 49 50

183
ASUS43 KFSD 232010
RWRSD

WEATHER ROUNDUP FOR SOUTH DAKOTA
NATIONAL WEATHER SERVICE SIOUX FALLS SD
300 PM CDT MON MAY 23 2016

NOTE: "FAIR" INDICATES FEW OR NO CLOUDS BELOW 12,000 FEET WITH NO
SIGNIFICANT WEATHER AND/OR OBSTRUCTIONS TO VISIBILITY.


SDZ001>005-009-010-012>017-232100-
NORTHWEST AND NORTH CENTRAL SOUTH DAKOTA

CITY           SKY/WX    TMP DP  RH WIND       PRES   REMARKS
BUFFALO          N/A     70  30  22 VRB3      29.65F
FAITH            N/A     73  39  29 SE9       29.70F
MOBRIDGE       SUNNY     77  49  37 S5        29.67S
$$

SDZ012>016-024>037-041>051-057-063-072>074-232100-
SOUTHWEST AND SOUTH CENTRAL SOUTH DAKOTA

CITY           SKY/WX    TMP DP  RH WIND       PRES   REMARKS
RAPID CTY ARPT SUNNY     75  26  16 W20G26    29.71F
PIERRE         SUNNY     77  48  35 VRB7      29.68F
CUSTER         SUNNY     61  25  25 W10G23    29.82F
ELLSWORTH AFB  MOSUNNY   75  27  17 SW16      29.69
PHILIP         SUNNY     75  45  34 SW10      29.71S
PINE RIDGE     SUNNY     72  29  20 W13       29.77S
WINNER         FAIR      77  50  38 SW12      29.73F
$$

SDZ004>011-016>023-039-040-232100-
NORTHEAST SOUTH DAKOTA

CITY           SKY/WX    TMP DP  RH WIND       PRES   REMARKS
ABERDEEN       MOSUNNY   78  52  40 SW8       29.70S
WATERTOWN      PTSUNNY   73  58  59 S8        29.74S
BROOKINGS      CLOUDY    72  61  68 W8        29.74F
SISSETON         N/A     77  52  41 SW7       29.69S
$$

SDZ017-020-022-023-036>040-048>070-232100-
SOUTHEAST SOUTH DAKOTA

CITY           SKY/WX    TMP DP  RH WIND       PRES   REMARKS
SIOUX FALLS    CLOUDY    72  62  71 SW6       29.74F
HURON          CLOUDY    76  56  49 SW12      29.71F
CHAMBERLAIN    SUNNY     76  57  50 S8        29.72F
MITCHELL       CLOUDY    73  57  57 VRB7      29.73F
YANKTON        CLOUDY    73  61  64 W8        29.72F
$$

ABBREVIATIONS USED IN REMARKS
   TC - TEMPERATURE IN CELSIUS
  WCI - WIND CHILL INDEX
   HX - HEAT INDEX
  VSB - VISIBILITY





USA.gov is the U.S. government's official web portal to all federal, state and local government web resources and services.